KUG3 WIDD-PGUM

Flight info

Callsign KUG3
Flight time N/A
Altitude 37000
Route DODSO G580 VKG G460 BRU W461 VSN A341 ZAM W10 KLAFU DCT 08N130E 10N136E 11N140E DCT LOEBB A450 UNZ
Aircraft A346/H-SDE2E3FGHIJ3J4J5M1RWXY/LB1D1

Departure

Time 2026-05-07 13:15
Airport Hang Nadim International Airport (WIDD)

Arrival

Time N/A
Airport Antonio B. Won Pat International Airport (PGUM)
Time Latitude Longitude Altitude Speed Heading
2026-05-07 12:37 1.12104 104.11437 96 ft 0 kts 310°
2026-05-07 12:46 1.12103 104.11437 96 ft 0 kts 310°
2026-05-07 12:47 1.12103 104.11438 98 ft 0 kts 311°
2026-05-07 12:51 1.12102 104.11438 98 ft 0 kts 310°
2026-05-07 12:51 1.12102 104.11439 98 ft 0 kts 310°
2026-05-07 12:55 1.12102 104.11440 96 ft 0 kts 310°
2026-05-07 12:56 1.12101 104.11440 96 ft 0 kts 310°
2026-05-07 12:58 1.12101 104.11441 96 ft 0 kts 310°
2026-05-07 13:01 1.12100 104.11441 96 ft 0 kts 310°
2026-05-07 13:02 1.12100 104.11442 96 ft 0 kts 310°
2026-05-07 13:02 1.12085 104.11460 96 ft 0 kts 310°
2026-05-07 13:02 1.12068 104.11480 96 ft 0 kts 310°
2026-05-07 13:03 1.12051 104.11500 98 ft 0 kts 310°
2026-05-07 13:03 1.12035 104.11520 96 ft 0 kts 302°
2026-05-07 13:03 1.12031 104.11536 98 ft 0 kts 261°
2026-05-07 13:03 1.12040 104.11552 96 ft 0 kts 222°
2026-05-07 13:04 1.12058 104.11560 96 ft 0 kts 187°
2026-05-07 13:04 1.12061 104.11561 96 ft 0 kts 185°
2026-05-07 13:05 1.12062 104.11561 96 ft 0 kts 185°
2026-05-07 13:05 1.12061 104.11561 96 ft 0 kts 185°
2026-05-07 13:08 1.12059 104.11561 96 ft 1 kts 185°
2026-05-07 13:08 1.12045 104.11559 95 ft 3 kts 185°
2026-05-07 13:09 1.12015 104.11557 97 ft 5 kts 185°
2026-05-07 13:09 1.11981 104.11546 100 ft 6 kts 207°
2026-05-07 13:09 1.11940 104.11522 98 ft 7 kts 217°
2026-05-07 13:09 1.11899 104.11486 99 ft 8 kts 221°
2026-05-07 13:10 1.11855 104.11447 100 ft 9 kts 221°
2026-05-07 13:10 1.11808 104.11405 101 ft 9 kts 222°
2026-05-07 13:10 1.11757 104.11359 102 ft 11 kts 222°
2026-05-07 13:10 1.11698 104.11306 103 ft 12 kts 222°
2026-05-07 13:11 1.11634 104.11248 106 ft 13 kts 222°
2026-05-07 13:11 1.11565 104.11191 106 ft 13 kts 219°
2026-05-07 13:11 1.11496 104.11134 108 ft 13 kts 219°
2026-05-07 13:11 1.11423 104.11073 88 ft 14 kts 220°
2026-05-07 13:12 1.11349 104.11010 111 ft 14 kts 220°
2026-05-07 13:12 1.11278 104.10949 111 ft 14 kts 224°
2026-05-07 13:12 1.11206 104.10879 112 ft 15 kts 224°
2026-05-07 13:12 1.11130 104.10805 112 ft 15 kts 224°
2026-05-07 13:13 1.11046 104.10726 113 ft 20 kts 223°
2026-05-07 13:13 1.10943 104.10631 112 ft 21 kts 223°
2026-05-07 13:13 1.10846 104.10583 113 ft 13 kts 143°
2026-05-07 13:13 1.10773 104.10647 115 ft 15 kts 131°
2026-05-07 13:14 1.10792 104.10733 113 ft 15 kts 45°
2026-05-07 13:14 1.10908 104.10837 111 ft 49 kts 41°
2026-05-07 13:14 1.11364 104.11239 108 ft 124 kts 41°
2026-05-07 13:14 1.12185 104.11956 94 ft 185 kts 42°
2026-05-07 13:15 1.13253 104.12875 499 ft 201 kts 40°
2026-05-07 13:15 1.14288 104.13734 1555 ft 195 kts 40°
2026-05-07 13:15 1.15364 104.14612 2202 ft 204 kts 40°
2026-05-07 13:15 1.16459 104.15567 2656 ft 215 kts 43°
2026-05-07 13:16 1.17567 104.16606 3137 ft 224 kts 44°
2026-05-07 13:16 1.18749 104.17702 3477 ft 241 kts 43°
2026-05-07 13:16 1.20043 104.18869 3796 ft 260 kts 42°
2026-05-07 13:16 1.21425 104.20098 4206 ft 275 kts 43°
2026-05-07 13:17 1.22652 104.21576 4855 ft 278 kts 64°
2026-05-07 13:17 1.23258 104.23397 5541 ft 277 kts 80°
2026-05-07 13:17 1.23574 104.25305 5941 ft 279 kts 82°
2026-05-07 13:17 1.23860 104.27233 6040 ft 280 kts 82°
2026-05-07 13:18 1.24151 104.29143 6040 ft 279 kts 82°
2026-05-07 13:18 1.24454 104.31056 6040 ft 279 kts 81°
2026-05-07 13:18 1.24762 104.32957 6041 ft 280 kts 81°
2026-05-07 13:18 1.25082 104.34883 6041 ft 280 kts 81°
2026-05-07 13:19 1.25403 104.36819 6063 ft 284 kts 81°
2026-05-07 13:19 1.25727 104.38773 6508 ft 286 kts 81°
2026-05-07 13:19 1.26052 104.40721 7143 ft 284 kts 81°
2026-05-07 13:19 1.26354 104.42529 7806 ft 285 kts 81°
2026-05-07 13:20 1.26678 104.44488 8533 ft 287 kts 81°
2026-05-07 13:20 1.27008 104.46467 9211 ft 289 kts 81°
2026-05-07 13:20 1.27340 104.48455 9878 ft 292 kts 81°
2026-05-07 13:20 1.27674 104.50462 10446 ft 297 kts 81°
2026-05-07 13:21 1.28022 104.52549 10755 ft 312 kts 81°
2026-05-07 13:21 1.28388 104.54746 11020 ft 327 kts 81°
2026-05-07 13:21 1.28771 104.57043 11283 ft 343 kts 81°
2026-05-07 13:21 1.29172 104.59449 11541 ft 358 kts 81°
2026-05-07 13:22 1.29585 104.61918 11788 ft 372 kts 81°
2026-05-07 13:22 1.30026 104.64557 12092 ft 384 kts 81°
2026-05-07 13:22 1.30463 104.67172 12655 ft 388 kts 81°
2026-05-07 13:22 1.30909 104.69839 13288 ft 389 kts 80°
2026-05-07 13:23 1.31357 104.72518 13872 ft 392 kts 80°
2026-05-07 13:23 1.31809 104.75220 14388 ft 395 kts 80°
2026-05-07 13:23 1.32263 104.77929 14908 ft 397 kts 80°
2026-05-07 13:23 1.32717 104.80639 15422 ft 400 kts 80°
2026-05-07 13:24 1.33178 104.83397 15929 ft 402 kts 80°
2026-05-07 13:24 1.33636 104.86143 16424 ft 405 kts 81°
2026-05-07 13:24 1.34000 104.88947 16927 ft 407 kts 84°
2026-05-07 13:24 1.34204 104.91776 17421 ft 410 kts 87°
2026-05-07 13:25 1.34265 104.93703 17725 ft 412 kts 88°
2026-05-07 13:25 1.34335 104.96575 18178 ft 415 kts 88°
2026-05-07 13:25 1.34400 104.99477 18572 ft 418 kts 88°
2026-05-07 13:25 1.34465 105.02395 18974 ft 421 kts 88°
2026-05-07 13:26 1.34532 105.05329 19358 ft 423 kts 88°
2026-05-07 13:26 1.34601 105.08280 19746 ft 426 kts 88°
2026-05-07 13:26 1.34671 105.11214 20114 ft 429 kts 88°
2026-05-07 13:26 1.34743 105.14244 20497 ft 431 kts 88°
2026-05-07 13:27 1.34815 105.17261 20874 ft 434 kts 88°
2026-05-07 13:27 1.34887 105.20282 21240 ft 436 kts 88°
2026-05-07 13:27 1.34960 105.23328 21598 ft 439 kts 88°
2026-05-07 13:27 1.35033 105.26391 21946 ft 442 kts 88°
2026-05-07 13:28 1.35106 105.29432 22289 ft 444 kts 88°
2026-05-07 13:28 1.35181 105.32530 22638 ft 447 kts 88°
2026-05-07 13:28 1.35256 105.35695 22984 ft 449 kts 88°
2026-05-07 13:28 1.35330 105.38774 23301 ft 452 kts 88°
2026-05-07 13:29 1.35405 105.41923 23582 ft 454 kts 88°
2026-05-07 13:29 1.35481 105.45095 23852 ft 456 kts 88°
2026-05-07 13:29 1.35557 105.48277 24129 ft 458 kts 88°
2026-05-07 13:29 1.35633 105.51470 24409 ft 460 kts 88°
2026-05-07 13:30 1.35710 105.54679 24682 ft 462 kts 88°
2026-05-07 13:30 1.35787 105.57895 24957 ft 464 kts 88°
2026-05-07 13:30 1.35864 105.61129 25238 ft 466 kts 88°
2026-05-07 13:30 1.35942 105.64375 25498 ft 468 kts 88°
2026-05-07 13:31 1.36022 105.67659 25775 ft 469 kts 88°
2026-05-07 13:31 1.36101 105.70930 26034 ft 471 kts 88°
2026-05-07 13:31 1.36180 105.74210 26302 ft 473 kts 88°
2026-05-07 13:31 1.36258 105.77507 26554 ft 475 kts 88°
2026-05-07 13:32 1.36336 105.80817 26815 ft 477 kts 88°
2026-05-07 13:32 1.36412 105.84152 27059 ft 479 kts 88°
2026-05-07 13:32 1.36490 105.87493 27307 ft 481 kts 88°
2026-05-07 13:32 1.36568 105.90846 27559 ft 483 kts 88°
2026-05-07 13:33 1.36647 105.94213 27818 ft 484 kts 88°
2026-05-07 13:33 1.36727 105.97580 28154 ft 483 kts 88°
2026-05-07 13:33 1.36807 106.00930 28532 ft 482 kts 88°
2026-05-07 13:33 1.36887 106.04242 28884 ft 482 kts 88°
2026-05-07 13:34 1.36967 106.07591 29224 ft 481 kts 88°
2026-05-07 13:34 1.37127 106.14287 29898 ft 481 kts 88°
2026-05-07 13:34 1.37207 106.17632 30186 ft 480 kts 88°
2026-05-07 13:35 1.37287 106.20972 30471 ft 479 kts 88°
2026-05-07 13:35 1.37366 106.24307 30765 ft 479 kts 88°
2026-05-07 13:35 1.37439 106.27648 30844 ft 478 kts 89°
2026-05-07 13:36 1.37583 106.34332 31009 ft 481 kts 89°
2026-05-07 13:36 1.37653 106.37512 31345 ft 478 kts 89°
2026-05-07 13:36 1.37727 106.40838 31731 ft 476 kts 89°
2026-05-07 13:36 1.37801 106.44153 32074 ft 474 kts 89°
2026-05-07 13:37 1.37874 106.47447 32377 ft 474 kts 89°
2026-05-07 13:37 1.37947 106.50739 32685 ft 473 kts 89°
2026-05-07 13:37 1.38021 106.54033 32854 ft 473 kts 89°
2026-05-07 13:38 1.38168 106.60621 32851 ft 473 kts 89°
2026-05-07 13:38 1.38316 106.67196 32857 ft 473 kts 89°
2026-05-07 13:39 1.38464 106.73763 32858 ft 472 kts 89°
2026-05-07 13:39 1.38612 106.80344 32855 ft 472 kts 89°
2026-05-07 13:40 1.38765 106.86881 32858 ft 472 kts 89°
2026-05-07 13:40 1.38921 106.93461 32858 ft 472 kts 89°
2026-05-07 13:41 1.39077 107.00030 32860 ft 472 kts 89°
2026-05-07 13:41 1.39234 107.06612 32859 ft 473 kts 89°
2026-05-07 13:42 1.39391 107.13196 32862 ft 473 kts 89°
2026-05-07 13:42 1.39547 107.19775 32860 ft 473 kts 89°
2026-05-07 13:43 1.39704 107.26366 32859 ft 473 kts 89°
2026-05-07 13:43 1.39860 107.32956 32859 ft 474 kts 89°
2026-05-07 13:44 1.40016 107.39544 32859 ft 474 kts 89°
2026-05-07 13:44 1.40174 107.46147 32862 ft 474 kts 89°
2026-05-07 13:45 1.40329 107.52738 32851 ft 474 kts 89°
2026-05-07 13:45 1.40485 107.59338 32861 ft 474 kts 89°
2026-05-07 13:46 1.40641 107.65946 32852 ft 474 kts 89°
2026-05-07 13:46 1.40797 107.72546 32861 ft 474 kts 89°
2026-05-07 13:47 1.40954 107.79149 32864 ft 474 kts 89°
2026-05-07 13:47 1.41111 107.85739 32864 ft 474 kts 89°
2026-05-07 13:48 1.41268 107.92341 32856 ft 474 kts 89°
2026-05-07 13:48 1.41423 107.98896 32863 ft 474 kts 89°
2026-05-07 13:49 1.41588 108.05496 32864 ft 474 kts 89°
2026-05-07 13:49 1.41761 108.12100 32864 ft 474 kts 89°
2026-05-07 13:50 1.41934 108.18694 32865 ft 474 kts 89°
2026-05-07 13:50 1.42108 108.25299 32864 ft 474 kts 89°
2026-05-07 13:51 1.42281 108.31854 32862 ft 474 kts 89°
2026-05-07 13:51 1.42455 108.38443 32854 ft 474 kts 89°
2026-05-07 13:52 1.42630 108.45034 32854 ft 473 kts 89°
2026-05-07 13:52 1.42803 108.51638 32855 ft 473 kts 89°
2026-05-07 13:53 1.42980 108.58219 32865 ft 473 kts 89°
2026-05-07 13:53 1.43160 108.64774 32855 ft 473 kts 89°
2026-05-07 13:54 1.43342 108.71360 32866 ft 473 kts 89°
2026-05-07 13:54 1.43524 108.77945 32869 ft 473 kts 89°
2026-05-07 13:55 1.43706 108.84528 32858 ft 473 kts 88°
2026-05-07 13:55 1.43889 108.91109 32867 ft 473 kts 88°
2026-05-07 13:56 1.44071 108.97698 32860 ft 473 kts 88°
2026-05-07 13:56 1.44253 109.04240 32865 ft 473 kts 88°
2026-05-07 13:57 1.44434 109.10833 32865 ft 473 kts 88°
2026-05-07 13:57 1.44616 109.17421 32867 ft 473 kts 88°
2026-05-07 13:58 1.44798 109.23998 32866 ft 473 kts 88°
2026-05-07 13:58 1.44979 109.30586 32867 ft 473 kts 88°
2026-05-07 13:59 1.45160 109.37135 32867 ft 473 kts 88°
2026-05-07 13:59 1.45341 109.43721 32868 ft 473 kts 88°
2026-05-07 14:00 1.45522 109.50310 32870 ft 473 kts 88°
2026-05-07 14:00 1.45704 109.56895 32871 ft 473 kts 88°
2026-05-07 14:01 1.45884 109.63447 32862 ft 473 kts 88°
2026-05-07 14:01 1.46066 109.70032 32870 ft 473 kts 88°
2026-05-07 14:02 1.46249 109.76627 32870 ft 473 kts 88°
2026-05-07 14:02 1.46420 109.83215 32870 ft 473 kts 89°
2026-05-07 14:03 1.46536 109.89802 32869 ft 473 kts 89°
2026-05-07 14:03 1.46652 109.96392 32872 ft 473 kts 89°
2026-05-07 14:04 1.46774 110.02946 32865 ft 473 kts 89°
2026-05-07 14:04 1.46898 110.09534 32861 ft 473 kts 89°
2026-05-07 14:05 1.47024 110.16151 32870 ft 473 kts 89°
2026-05-07 14:05 1.47210 110.22707 32866 ft 474 kts 86°
2026-05-07 14:06 1.48063 110.29247 32867 ft 474 kts 79°
2026-05-07 14:06 1.49744 110.35625 32867 ft 474 kts 72°
2026-05-07 14:07 1.52287 110.41730 32856 ft 475 kts 61°
2026-05-07 14:07 1.55840 110.47264 32866 ft 476 kts 57°
2026-05-07 14:08 1.59524 110.52775 32867 ft 476 kts 57°
2026-05-07 14:08 1.63203 110.58296 32865 ft 476 kts 57°
2026-05-07 14:09 1.66864 110.63812 32856 ft 476 kts 57°
2026-05-07 14:09 1.70524 110.69332 32856 ft 475 kts 57°
2026-05-07 14:10 1.73564 110.73923 32855 ft 475 kts 57°
2026-05-07 14:10 1.77220 110.79442 32861 ft 475 kts 57°
2026-05-07 14:11 1.81467 110.85855 32862 ft 476 kts 57°
2026-05-07 14:11 1.84290 110.90635 32882 ft 478 kts 62°
2026-05-07 14:11 1.85781 110.93381 33091 ft 478 kts 62°
2026-05-07 14:12 1.87343 110.96271 33411 ft 476 kts 62°
2026-05-07 14:12 1.88927 110.99186 33785 ft 475 kts 62°
2026-05-07 14:12 1.90425 111.01924 34074 ft 474 kts 62°
2026-05-07 14:12 1.92012 111.04812 34363 ft 473 kts 62°
2026-05-07 14:13 1.93606 111.07701 34645 ft 473 kts 62°
2026-05-07 14:13 1.95197 111.10582 34940 ft 472 kts 62°
2026-05-07 14:13 1.96783 111.13450 35217 ft 471 kts 62°
2026-05-07 14:13 1.98376 111.16325 35475 ft 471 kts 62°
2026-05-07 14:14 1.99964 111.19193 35729 ft 471 kts 62°
2026-05-07 14:14 2.01530 111.22024 35950 ft 471 kts 62°
2026-05-07 14:14 2.03122 111.24901 36153 ft 472 kts 62°
2026-05-07 14:14 2.04713 111.27776 36358 ft 473 kts 62°
2026-05-07 14:15 2.06312 111.30666 36573 ft 474 kts 62°
2026-05-07 14:15 2.07910 111.33552 36781 ft 474 kts 62°
2026-05-07 14:15 2.09513 111.36448 36861 ft 475 kts 62°
2026-05-07 14:16 2.12726 111.42253 36867 ft 476 kts 62°
2026-05-07 14:16 2.15929 111.48045 36868 ft 474 kts 62°
2026-05-07 14:17 2.19111 111.53792 36869 ft 474 kts 62°
2026-05-07 14:17 2.22306 111.59564 36872 ft 474 kts 62°
2026-05-07 14:18 2.25507 111.65348 36867 ft 474 kts 62°
2026-05-07 14:18 2.28703 111.71125 36868 ft 474 kts 62°
2026-05-07 14:19 2.31881 111.76871 36871 ft 474 kts 62°
2026-05-07 14:19 2.35077 111.82650 36873 ft 473 kts 61°
2026-05-07 14:20 2.38274 111.88431 36870 ft 473 kts 61°
2026-05-07 14:20 2.41467 111.94205 36864 ft 473 kts 61°
2026-05-07 14:21 2.44641 111.99944 36872 ft 473 kts 61°
2026-05-07 14:21 2.47839 112.05728 36865 ft 473 kts 61°
2026-05-07 14:22 2.51042 112.11527 36868 ft 477 kts 61°
2026-05-07 14:22 2.54260 112.17346 36877 ft 476 kts 61°
2026-05-07 14:23 2.57466 112.23146 36871 ft 476 kts 61°
2026-05-07 14:23 2.60652 112.28913 36875 ft 476 kts 61°
2026-05-07 14:24 2.63862 112.34724 36871 ft 476 kts 61°
2026-05-07 14:24 2.67070 112.40530 36869 ft 476 kts 61°
2026-05-07 14:25 2.70255 112.46299 36875 ft 476 kts 61°
2026-05-07 14:25 2.73467 112.52119 36876 ft 476 kts 61°
2026-05-07 14:26 2.76676 112.57927 36869 ft 476 kts 61°
2026-05-07 14:26 2.79882 112.63732 36873 ft 476 kts 61°
2026-05-07 14:27 2.83086 112.69535 36868 ft 476 kts 61°
2026-05-07 14:27 2.86287 112.75333 36872 ft 475 kts 61°
2026-05-07 14:28 2.89475 112.81113 36879 ft 477 kts 61°
2026-05-07 14:28 2.92698 112.86955 36873 ft 479 kts 61°
2026-05-07 14:29 2.95924 112.92801 36872 ft 479 kts 61°
2026-05-07 14:29 2.99148 112.98646 36871 ft 479 kts 61°
2026-05-07 14:30 3.02367 113.04483 36867 ft 479 kts 61°
2026-05-07 14:30 3.05597 113.10341 36870 ft 479 kts 61°
2026-05-07 14:31 3.08819 113.16187 36871 ft 479 kts 61°
2026-05-07 14:31 3.12024 113.22000 36872 ft 479 kts 61°
2026-05-07 14:32 3.15251 113.27855 36875 ft 479 kts 61°
2026-05-07 14:32 3.18483 113.33716 36874 ft 481 kts 61°
2026-05-07 14:33 3.21722 113.39597 36875 ft 481 kts 61°
2026-05-07 14:33 3.24958 113.45476 36876 ft 481 kts 61°
2026-05-07 14:34 3.28171 113.51310 36877 ft 480 kts 61°
2026-05-07 14:34 3.31401 113.57173 36875 ft 480 kts 61°
2026-05-07 14:35 3.34628 113.63034 36879 ft 480 kts 61°
2026-05-07 14:35 3.37856 113.68896 36877 ft 480 kts 61°
2026-05-07 14:36 3.41085 113.74764 36875 ft 480 kts 61°
2026-05-07 14:36 3.44295 113.80607 36884 ft 477 kts 60°
2026-05-07 14:37 3.47500 113.86427 36883 ft 477 kts 60°
2026-05-07 14:37 3.52319 113.95175 36880 ft 478 kts 61°
2026-05-07 14:38 3.55507 114.00975 36882 ft 478 kts 61°
2026-05-07 14:38 3.58715 114.06812 36883 ft 478 kts 61°
2026-05-07 14:39 3.61922 114.12654 36884 ft 478 kts 61°
2026-05-07 14:39 3.65119 114.18468 36886 ft 478 kts 61°
2026-05-07 14:40 3.68333 114.24315 36887 ft 478 kts 61°
2026-05-07 14:40 3.71544 114.30158 36889 ft 478 kts 61°
2026-05-07 14:41 3.74756 114.36004 36888 ft 478 kts 61°
2026-05-07 14:41 3.77961 114.41836 36888 ft 479 kts 61°
2026-05-07 14:42 3.81158 114.47660 36883 ft 480 kts 61°
2026-05-07 14:42 3.84377 114.53524 36889 ft 480 kts 61°
2026-05-07 14:43 3.87596 114.59389 36892 ft 480 kts 61°
2026-05-07 14:43 3.90819 114.65261 36900 ft 480 kts 61°
2026-05-07 14:44 3.94035 114.71123 36897 ft 480 kts 61°
2026-05-07 14:44 3.97256 114.76995 36910 ft 480 kts 61°
2026-05-07 14:45 4.00468 114.82852 36907 ft 480 kts 61°
2026-05-07 14:45 4.03684 114.88716 36905 ft 480 kts 61°
2026-05-07 14:46 4.06900 114.94582 36906 ft 480 kts 61°
2026-05-07 14:46 4.10112 115.00441 36905 ft 480 kts 61°
2026-05-07 14:47 4.13329 115.06312 36913 ft 482 kts 61°
2026-05-07 14:47 4.16554 115.12200 36905 ft 481 kts 61°
2026-05-07 14:48 4.19776 115.18082 36924 ft 481 kts 61°
2026-05-07 14:48 4.22999 115.23965 36924 ft 481 kts 61°
2026-05-07 14:49 4.26224 115.29855 36936 ft 481 kts 61°
2026-05-07 14:49 4.29426 115.35704 36926 ft 482 kts 61°
2026-05-07 14:50 4.32660 115.41613 36947 ft 484 kts 61°
2026-05-07 14:50 4.35903 115.47539 36943 ft 484 kts 61°
2026-05-07 14:51 4.39141 115.53459 36959 ft 484 kts 61°
2026-05-07 14:51 4.42381 115.59383 36951 ft 484 kts 61°
2026-05-07 14:52 4.45618 115.65302 36963 ft 483 kts 61°
2026-05-07 14:52 4.48850 115.71219 36958 ft 483 kts 60°
2026-05-07 14:53 4.52082 115.77130 36963 ft 483 kts 60°
2026-05-07 14:53 4.55294 115.83005 36952 ft 483 kts 60°
2026-05-07 14:54 4.58523 115.88914 36944 ft 483 kts 60°
2026-05-07 14:54 4.61760 115.94840 36944 ft 483 kts 60°
2026-05-07 14:55 4.65001 116.00765 36944 ft 482 kts 61°
2026-05-07 14:55 4.68226 116.06676 36924 ft 482 kts 61°
2026-05-07 14:56 4.71452 116.12591 36924 ft 482 kts 61°
2026-05-07 14:56 4.74655 116.18464 36916 ft 482 kts 61°
2026-05-07 14:57 4.77881 116.24377 36917 ft 482 kts 61°
2026-05-07 14:57 4.81107 116.30302 36907 ft 483 kts 60°
2026-05-07 14:58 4.84315 116.36183 36908 ft 483 kts 60°
2026-05-07 14:58 4.87543 116.42102 36903 ft 483 kts 60°
2026-05-07 14:59 4.90248 116.47065 36902 ft 483 kts 60°
2026-05-07 14:59 4.93474 116.52985 36900 ft 483 kts 60°
2026-05-07 15:00 4.96681 116.58870 36901 ft 484 kts 61°
2026-05-07 15:00 4.99915 116.64809 36902 ft 484 kts 61°
2026-05-07 15:01 5.03144 116.70742 36901 ft 484 kts 61°
2026-05-07 15:01 5.06378 116.76685 36900 ft 484 kts 61°
2026-05-07 15:02 5.09611 116.82628 36900 ft 484 kts 61°
2026-05-07 15:02 5.09744 116.82874 36900 ft 484 kts 61°